Location: Absher
(46.5583°N, 107.9840°W)
Time: 08:21:47
(UTC+00:00)

STRAND 1 - Pass Details

Date: 06 April 2023
Orbit: 767 x 779 km, 98.4° (Epoch: 03 June)

Event Time Altitude Azimuth Distance (km) Brightness Sun altitude
Rises 11:56:20 0° 132° (SE) 3,242 ? -8.4°
Reaches altitude 10° 11:58:55 10° 121° (ESE) 2,317 ? -8.0°
Maximum altitude 12:03:11 28° 64° (ENE) 1,432 ? -7.3°
Drops below altitude 10° 12:07:28 10° 7° (N) 2,324 ? -6.6°
Sets 12:10:03 0° 356° (N) 3,254 ? -6.2°
